Weather in Kamensk

Russia / Irkutsk Oblast     56°10′24″N   99°07′18″E
temp.,
°C
wind,
m/s
gust,
m/s
humid.,
%
clouds,
%
prec.,
mm/h
press.,
hPa
HPBL,
m
29 july, thu
thu2923:00+15wnw398962 0.3 1004274
02:00+13wnw31097100 0.6 1005331
05:00+12wnw41097100 0.6 1005468
08:00+12w41097100 0.6 1007567
11:00+13w4995100 0.3 1007673
14:00+14wnw3788100 0.3 1008771
17:00+15w5778100 0.1 1009842
20:00+15w478081 0.1 1010682
30 july, fri
fri3023:00+11w269986 0.0 1010203
02:00+12w2690100 0.0 1011315
05:00+12wsw2585100 0.0 1011255
08:00+14wnw2579100 0.0 1011319
11:00+17wnw3459100 0.0 1011850
14:00+19nnw135734 0.0 1010766
17:00+21nne234718 0.0 10101255
20:00+18e2267100 0.0 101060
31 july, sat
sat3123:00+13sse118399 0.0 101110
02:00+11w119284 0.0 101210
05:00+11wsw11936 0.0 101410
08:00+16w117230 0.0 1014177
11:00+21wnw3348100 0.0 10151165
14:00+23wnw3439100 0.0 10141902
17:00+20nw4449100 0.0 1015757
20:00+16wnw2470100 0.0 1016126
1 august, sun
sun123:00+15nw2376100 0.0 101689
02:00+13nw1187100 0.0 101611
05:00+13nw1287100 0.0 101536
08:00+13w1289100 0.2 101559
11:00+14nnw1396100 1.1 1014193
14:00+14nnw3799100 6.6 1013345
17:00+14n2899100 3.9 1013364
20:00+13wnw2599100 4.4 1012213
2 august, mon
mon223:00+13wnw2499100 0.0 1012111
02:00+12wnw2499100 0.0 1012126
05:00+12wnw2499100 0.0 1011117
08:00+14wnw239451 0.0 1011203
11:00+19w2362100 0.0 1011859
14:00+23wnw244285 0.0 10101943
17:00+21se0157100 0.0 101011
20:00+19se2264100 0.0 101019